Regional Weather Roundup
Issued by NWS

Home | Current Version | Previous Version | Graphics & Text | Print | Product List | Glossary On
Versions: 1 2 3 4 5 6 7 8 9 10 11 12 13 14 15 16 17 18 19 20 21 22 23 24 25 26 27 28 29 30 31 32 33 34 35 36 37 38 39 40 41 42 43 44 45 46 47 48 49 50
000
ASUS44 KMEG 280610
RWRTN
TENNESSEE HOURLY STATE WEATHER ROUNDUP
NATIONAL WEATHER SERVICE MEMPHIS TN
100 AM CDT SAT MAR 28 2015

TNZ002-004-019-021-049-052-054-088>092-280700-
WEST TENNESSEE

CITY           SKY/WX    TMP DP  RH WIND       PRES   REMARKS
MEMPHIS INTL   CLOUDY    39  23  52 E10       30.19F WCI  32
NWS MEMPHIS      N/A     37 N/A N/A MISG        N/A
JACKSON        MOCLDY    34  22  61 NE7       30.19S WCI  28
DYERSBURG      CLOUDY    34  14  44 CALM      30.22S
UNION CITY     CLEAR     30  21  69 NE3       30.18F
PARIS          CLEAR     27  16  63 CALM      30.18S
LEXINGTON      CLEAR     30  19  64 N7        30.17R WCI  23
SAVANNAH       CLEAR     34  25  69 N5        30.18R WCI  30
$$

TNZ008-025-027-028-033-062-065-066-280700-
NORTH MIDDLE TENNESSEE

CITY           SKY/WX    TMP DP  RH WIND       PRES   REMARKS
NASHVILLE      CLOUDY    34  20  56 N7        30.15S WCI  28
CLARKSVILLE    MOCLDY    31  21  66 N7        30.17S WCI  24
SMYRNA         CLEAR     33  19  56 N9        30.16S WCI  25
COOKEVILLE     CLEAR     30  21  69 N5        30.08F WCI  25
CROSSVILLE     CLOUDY    31  20  63 NW12      30.04S WCI  22
$$

TNZ061-075-076-078-094-096-097-280700-
SOUTH MIDDLE TENNESSEE

CITY           SKY/WX    TMP DP  RH WIND       PRES   REMARKS
FAYETTEVILLE   CLEAR     32  27  80 N7        30.11S WCI  26
TULLAHOMA      CLEAR     30  21  69 NW7       30.11S WCI  23
WINCHESTER     MOCLDY    34  27  75 N6        30.11R WCI  29
MCMINNVILLE    PTCLDY    32  19  59 NW7       30.10S WCI  26
COLUMBIA       CLEAR     32  30  93 N3        30.13F
SHELBYVILLE    CLEAR     32  25  74 NW7       30.14R WCI  26
$$

TNZ017-018-042-046-047-280700-
NORTHEAST TENNESSEE

CITY           SKY/WX    TMP DP  RH WIND       PRES   REMARKS
TRI CITIES     CLOUDY    34  24  67 NW6       29.97R WCI  29
ELIZABETHTON   FLURRIES  30  23  74 NW8       29.95R WCI  23
$$

TNZ012-013-036-069-073-074-280700-
CENTRAL EAST TENNESSEE

CITY           SKY/WX    TMP DP  RH WIND       PRES   REMARKS
KNOXVILLE      FLURRIES  35  24  64 NW7       30.05R WCI  29
OAK RIDGE      CLOUDY    36  21  54 N7        30.07R WCI  30
GATLINBURG     CLOUDY    34  21  60 NW10      30.03R WCI  26
MORRISTOWN     MOCLDY    34  23  64 NW7       30.02R WCI  28
$$

TNZ083-085-099-280700-
SOUTHEAST TENNESSEE

CITY           SKY/WX    TMP DP  RH WIND       PRES   REMARKS
CHATTANOOGA    PTCLDY    39  27  62 NW13      30.08S WCI  31
$$

SKY/WX REPORTED AS FAIR MEANS FEW OR NO CLOUDS BELOW
12 THOUSAND FEET.



USA.gov is the U.S. government's official web portal to all federal, state and local government web resources and services.